Chillicothe, MO

3:57 AM CDT on July 23, 2017 (GMT -0500)
Chillicothe

Weather History for KCDJ - January, 2013

Change the Weather History Date:

Thursday, January 3, 2013

  Actual Average (KIRK) Record (KIRK)
Temperature  
Mean Temperature 25 °F -  
Max Temperature 35 °F 33 °F 64 °F (1998)
Min Temperature 12 °F 15 °F -17 °F (1919)
Degree Days  
Heating Degree Days 40    
Moisture  
Dew Point 20 °F    
Average Humidity 81    
Maximum Humidity 96    
Minimum Humidity 64    
Precipitation  
Precipitation 0.00 in - - ()
Sea Level Pressure  
Sea Level Pressure 30.40 in    
Wind  
Wind Speed 3 mph (WNW)    
Max Wind Speed 12 mph    
Max Gust Speed 18 mph    
Averages and records for this station are not official NWS values.
T = Trace of Precipitation, MM = Missing Value Source: NWS Daily Summary

Daily Weather History Graph

Daily Weather History Graph

Search for Another Location

Airport or City:

Trip Planner

Search our weather history database for the weather conditions in past years. The results will help you decide how hot, cold, wet, or windy it might be!

Date:

Astronomy

Jan. 03, 2013 Rise Set
Actual Time 7:35 AM CST 5:02 PM CST
Civil Twilight 7:05 AM CST 5:32 PM CST
Nautical Twilight 6:31 AM CST 6:06 PM CST
Astronomical Twilight 5:59 AM CST 6:39 PM CST
Moon 11:37 PM CST (1/3) 10:48 AM CST (1/3)
Length of Visible Light 10h 26m
Length of Day
9h 26m
Waning Gibbous, 65% of the Moon is Illuminated
Jan 3
Waning Gibbous
Jan 4
Last Quarter
Jan 11
New
Jan 18
First Quarter
Jan 26
Full

Hourly Weather History & Observations

Time (CST) Temp. Windchill Dew Point Humidity Pressure Visibility Wind Dir Wind Speed Gust Speed Precip Events Conditions
12:52 AM 21.9 °F - 19.0 °F 89% 30.29 in - Calm Calm - N/A   Unknown
1:52 AM 24.1 °F - 19.9 °F 84% 30.30 in - Calm Calm - N/A   Unknown
2:52 AM 25.0 °F 20.7 °F 21.9 °F 88% 30.31 in - Variable 3.5 mph - N/A   Unknown
3:52 AM 21.9 °F - 19.9 °F 92% 30.32 in - Calm Calm - N/A   Unknown
4:52 AM 24.1 °F 19.7 °F 21.9 °F 91% 30.33 in - Variable 3.5 mph - N/A   Unknown
5:52 AM 19.0 °F - 18.0 °F 96% 30.34 in - Calm Calm - N/A   Unknown
6:52 AM 27.0 °F 21.6 °F 24.1 °F 89% 30.35 in - NW 4.6 mph - N/A   Unknown
7:52 AM 28.0 °F 22.8 °F 25.0 °F 88% 30.37 in - WNW 4.6 mph - N/A   Unknown
8:52 AM 30.0 °F 26.5 °F 26.1 °F 85% 30.39 in - Variable 3.5 mph - N/A   Unknown
9:52 AM 30.9 °F 27.5 °F 27.0 °F 85% 30.42 in - WSW 3.5 mph - N/A   Unknown
10:52 AM 34.0 °F 27.2 °F 27.0 °F 75% 30.43 in - West 8.1 mph - N/A   Unknown
11:52 AM 35.1 °F 28.6 °F 26.1 °F 70% 30.42 in - WNW 8.1 mph - N/A   Unknown
12:52 PM 35.1 °F 26.9 °F 24.1 °F 64% 30.40 in - WNW 11.5 mph 18.4 mph N/A   Unknown
1:52 PM 34.0 °F 27.2 °F 23.0 °F 64% 30.40 in - West 8.1 mph - N/A   Unknown
2:52 PM 34.0 °F 25.5 °F 23.0 °F 64% 30.40 in - NW 11.5 mph - N/A   Unknown
3:52 PM 30.9 °F 23.5 °F 19.9 °F 64% 30.43 in - WNW 8.1 mph - N/A   Unknown
4:52 PM 28.9 °F 21.1 °F 19.0 °F 67% 30.44 in - WNW 8.1 mph - N/A   Unknown
5:52 PM 26.1 °F 20.5 °F 18.0 °F 71% 30.46 in - NW 4.6 mph - N/A   Unknown
6:52 PM 24.1 °F 19.7 °F 18.0 °F 77% 30.47 in - NW 3.5 mph - N/A   Unknown
7:52 PM 21.0 °F - 17.1 °F 85% 30.48 in - Calm Calm - N/A   Unknown
8:52 PM 19.0 °F - 16.0 °F 88% 30.48 in - Calm Calm - N/A   Unknown
9:52 PM 17.1 °F 11.7 °F 15.1 °F 92% 30.47 in - NW 3.5 mph - N/A   Unknown
10:52 PM 15.1 °F - 10.9 °F 84% 30.46 in - Calm Calm - N/A   Unknown
11:52 PM 12.0 °F - 10.9 °F 95% 30.45 in - Calm Calm - N/A   Unknown